EW4785 Weather Reports


time (UTC)temp
C
wind
direction
speed
KPH
gust
KPH
rain 1hr
cm
rain 24hr
cm
rain mn
cm
humidity
%
barometer
mb
20260504213135 25 196 4.8 16.1 0.00 0.00 0.00 34 1013.4
20260504211549 25 109 1.6 16.1 0.00 0.00 0.00 34 1013.5
20260504210036 25 184 3.2 12.9 0.00 0.00 0.00 35 1013.6
20260504204532 25 180 6.4 14.5 0.00 0.00 0.00 33 1013.6
20260504203029 25 120 3.2 14.5 0.00 0.00 0.00 32 1013.8
20260504201526 25 190 1.6 14.5 0.00 0.00 0.00 34 1014.0
20260504200025 25 267 3.2 14.5 0.00 0.00 0.00 34 1014.2
20260504194522 25 187 4.8 12.9 0.00 0.00 0.00 33 1014.4
20260504193021 25 278 3.2 14.5 0.00 0.00 0.00 33 1014.6
20260504191517 25 180 3.2 9.7 0.00 0.00 0.00 34 1014.7
20260504190014 25 155 4.8 11.3 0.00 0.00 0.00 34 1014.9
20260504184513 25 213 3.2 14.5 0.00 0.00 0.00 34 1015.0
20260504183011 25 265 1.6 14.5 0.00 0.00 0.00 34 1015.0
20260504181508 24 236 3.2 8.0 0.00 0.00 0.00 34 1015.4
20260504180006 23 144 6.4 14.5 0.00 0.00 0.00 34 1015.5
20260504174503 23 168 3.2 11.3 0.00 0.00 0.00 34 1015.6
20260504173101 23 271 4.8 12.9 0.00 0.00 0.00 33 1015.7
20260504171558 23 227 6.4 14.5 0.00 0.00 0.00 33 1015.8
20260504081531 6 178 0.0 1.6 0.00 0.00 0.00 78 1017.2
20260504050014 7 178 0.0 1.6 0.00 0.00 0.00 69 1017.5
20260504044514 7 178 0.0 1.6 0.00 0.00 0.00 69 1017.5
20260504043013 7 178 0.0 1.6 0.00 0.00 0.00 68 1017.6
20260504041506 8 178 0.0 3.2 0.00 0.00 0.00 68 1017.6
20260504040137 7 178 0.0 1.6 0.00 0.00 0.00 69 1017.7
20260504034502 7 178 0.0 1.6 0.00 0.00 0.00 69 1017.7
20260504033001 7 178 0.0 0.0 0.00 0.00 0.00 68 1017.6
20260504031501 7 178 0.0 0.0 0.00 0.00 0.00 67 1017.7
20260504030001 7 178 0.0 0.0 0.00 0.00 0.00 66 1017.6
20260504024605 7 178 0.0 0.0 0.00 0.00 0.00 66 1017.5
20260504023059 7 178 0.0 0.0 0.00 0.00 0.00 66 1017.4
20260504021559 8 178 0.0 0.0 0.00 0.00 0.00 67 1017.3
20260504020110 8 178 0.0 0.0 0.00 0.00 0.00 65 1017.0
20260504014555 8 178 0.0 0.0 0.00 0.00 0.00 64 1017.0
20260504013057 9 178 0.0 0.0 0.00 0.00 0.00 63 1017.0
20260504011551 10 178 0.0 0.0 0.00 0.00 0.00 60 1017.0
20260504010053 10 178 0.0 0.0 0.00 0.00 0.00 56 1016.8
20260504004548 11 178 0.0 0.0 0.00 0.00 0.00 54 1016.6
20260504003051 12 178 0.0 0.0 0.00 0.00 0.00 51 1016.4
20260504001552 13 178 0.0 0.0 0.00 0.00 0.00 47 1016.4
20260504000050 15 178 0.0 0.0 0.00 0.00 0.00 45 1016.3
20260503234602 16 178 0.0 0.0 0.00 0.00 0.00 39 1016.3
20260503233049 17 178 0.0 1.6 0.00 0.00 0.00 33 1016.3
20260503231545 18 178 0.0 3.2 0.00 0.00 0.00 30 1016.2
20260503230044 18 11 0.0 3.2 0.00 0.00 0.00 29 1016.2
20260503224543 18 318 0.0 6.4 0.00 0.00 0.00 29 1016.3
20260503223043 18 256 3.2 6.4 0.00 0.00 0.00 30 1016.5
20260503221553 18 161 4.8 9.7 0.00 0.00 0.00 28 1016.7
20260503220041 18 187 1.6 8.0 0.00 0.00 0.00 28 1016.8
20260503214539 18 298 3.2 11.3 0.00 0.00 0.00 28 1017.0